CSZ4602 ZYHB-ZSQD

Flight info

Callsign CSZ4602
Flight time N/A
Altitude 36100
Route DUK19D DUKIR W655 NIMEM W205 NULRA A588 UDETI W106 MAKNO W5 HCH W4 UPDAD
Aircraft A20N/M-SDE2E3FGHIRWXY/LB1

Departure

Time 2026-04-25 13:38
Airport Harbin Taiping International Airport (ZYHB)

Arrival

Time N/A
Airport Qingdao Jiaodong International Airport (ZSQD)
Time Latitude Longitude Altitude Speed Heading
2026-04-25 13:16 45.61578 126.23217 510 ft 0 kts 39°
2026-04-25 13:25 45.61572 126.23209 509 ft 2 kts 39°
2026-04-25 13:25 45.61561 126.23196 509 ft 2 kts 39°
2026-04-25 13:25 45.61549 126.23182 509 ft 2 kts 51°
2026-04-25 13:25 45.61541 126.23164 509 ft 2 kts 68°
2026-04-25 13:26 45.61538 126.23144 509 ft 2 kts 86°
2026-04-25 13:26 45.61538 126.23122 509 ft 2 kts 103°
2026-04-25 13:26 45.61544 126.23103 509 ft 2 kts 121°
2026-04-25 13:26 45.61548 126.23093 509 ft 1 kts 131°
2026-04-25 13:27 45.61552 126.23088 509 ft 0 kts 130°
2026-04-25 13:29 45.61551 126.23089 509 ft 0 kts 130°
2026-04-25 13:29 45.61547 126.23096 509 ft 1 kts 130°
2026-04-25 13:29 45.61538 126.23110 509 ft 2 kts 130°
2026-04-25 13:30 45.61507 126.23161 509 ft 4 kts 130°
2026-04-25 13:30 45.61486 126.23198 509 ft 5 kts 130°
2026-04-25 13:30 45.61461 126.23241 509 ft 6 kts 129°
2026-04-25 13:31 45.61401 126.23346 509 ft 7 kts 128°
2026-04-25 13:31 45.61358 126.23392 509 ft 8 kts 173°
2026-04-25 13:31 45.61306 126.23358 509 ft 9 kts 217°
2026-04-25 13:31 45.61256 126.23299 509 ft 10 kts 219°
2026-04-25 13:32 45.61203 126.23236 509 ft 10 kts 218°
2026-04-25 13:32 45.61145 126.23171 509 ft 11 kts 218°
2026-04-25 13:32 45.61078 126.23093 509 ft 11 kts 219°
2026-04-25 13:32 45.61011 126.23013 509 ft 12 kts 220°
2026-04-25 13:33 45.60948 126.22938 509 ft 12 kts 218°
2026-04-25 13:33 45.60877 126.22858 509 ft 13 kts 219°
2026-04-25 13:33 45.60799 126.22847 509 ft 12 kts 139°
2026-04-25 13:33 45.60759 126.22911 509 ft 12 kts 128°
2026-04-25 13:34 45.60682 126.23047 509 ft 13 kts 129°
2026-04-25 13:34 45.60623 126.23149 509 ft 13 kts 129°
2026-04-25 13:34 45.60563 126.23254 509 ft 13 kts 128°
2026-04-25 13:34 45.60502 126.23360 509 ft 14 kts 130°
2026-04-25 13:35 45.60439 126.23470 509 ft 14 kts 129°
2026-04-25 13:35 45.60373 126.23574 509 ft 14 kts 132°
2026-04-25 13:35 45.60311 126.23681 509 ft 14 kts 129°
2026-04-25 13:35 45.60300 126.23701 509 ft 0 kts 129°
2026-04-25 13:36 45.60299 126.23701 509 ft 0 kts 129°
2026-04-25 13:37 45.60286 126.23725 509 ft 6 kts 129°
2026-04-25 13:37 45.60235 126.23788 509 ft 12 kts 173°
2026-04-25 13:37 45.60150 126.23715 509 ft 17 kts 221°
2026-04-25 13:37 45.60016 126.23554 509 ft 34 kts 219°
2026-04-25 13:38 45.59649 126.23137 510 ft 100 kts 219°
2026-04-25 13:38 45.58957 126.22317 512 ft 155 kts 219°
2026-04-25 13:38 45.58104 126.21309 1037 ft 155 kts 219°
2026-04-25 13:38 45.57354 126.20418 1833 ft 139 kts 218°
2026-04-25 13:39 45.56556 126.19460 2117 ft 162 kts 218°
2026-04-25 13:39 45.55611 126.18367 2349 ft 191 kts 218°
2026-04-25 13:39 45.54498 126.17079 2549 ft 215 kts 218°
2026-04-25 13:39 45.53238 126.15617 2671 ft 245 kts 218°
2026-04-25 13:40 45.51900 126.14058 2845 ft 251 kts 218°
2026-04-25 13:40 45.50560 126.12498 3019 ft 252 kts 218°
2026-04-25 13:40 45.49192 126.10903 3196 ft 252 kts 218°
2026-04-25 13:40 45.47842 126.09332 3371 ft 252 kts 218°
2026-04-25 13:41 45.46471 126.07737 3548 ft 253 kts 218°
2026-04-25 13:41 45.45118 126.06162 3723 ft 253 kts 218°
2026-04-25 13:41 45.43754 126.04577 3899 ft 253 kts 218°
2026-04-25 13:41 45.42368 126.02967 4078 ft 253 kts 218°
2026-04-25 13:42 45.41007 126.01387 4253 ft 254 kts 218°
2026-04-25 13:42 45.39610 125.99766 4433 ft 254 kts 218°
2026-04-25 13:42 45.38230 125.98166 4610 ft 254 kts 218°
2026-04-25 13:42 45.36843 125.96561 4787 ft 255 kts 218°
2026-04-25 13:43 45.35341 125.95297 4953 ft 255 kts 199°
2026-04-25 13:43 45.33590 125.94847 5155 ft 256 kts 183°
2026-04-25 13:43 45.31831 125.94818 5405 ft 257 kts 181°
2026-04-25 13:43 45.30047 125.94835 5656 ft 257 kts 181°
2026-04-25 13:44 45.28250 125.94843 5908 ft 258 kts 181°
2026-04-25 13:44 45.26465 125.94840 6157 ft 259 kts 181°
2026-04-25 13:44 45.24662 125.94827 6409 ft 259 kts 182°
2026-04-25 13:44 45.22850 125.94811 6661 ft 260 kts 182°
2026-04-25 13:45 45.21093 125.94795 6905 ft 261 kts 182°
2026-04-25 13:45 45.19252 125.94778 7160 ft 262 kts 182°
2026-04-25 13:45 45.17436 125.94761 7410 ft 262 kts 182°
2026-04-25 13:45 45.15615 125.94744 7661 ft 263 kts 182°
2026-04-25 13:46 45.13764 125.94727 7914 ft 264 kts 182°
2026-04-25 13:46 45.11930 125.94710 8165 ft 265 kts 182°
2026-04-25 13:46 45.10076 125.94694 8417 ft 266 kts 182°
2026-04-25 13:46 45.08222 125.94676 8667 ft 268 kts 183°
2026-04-25 13:47 45.06376 125.94659 8914 ft 270 kts 183°
2026-04-25 13:47 45.04485 125.94641 9166 ft 272 kts 183°
2026-04-25 13:47 45.02593 125.94624 9416 ft 274 kts 183°
2026-04-25 13:47 45.00695 125.94606 9665 ft 276 kts 183°
2026-04-25 13:48 44.98756 125.94588 9919 ft 279 kts 183°
2026-04-25 13:48 44.96794 125.94568 10368 ft 289 kts 183°
2026-04-25 13:48 44.94739 125.94546 10753 ft 305 kts 183°
2026-04-25 13:48 44.92578 125.94524 11121 ft 321 kts 183°
2026-04-25 13:49 44.90392 125.94505 11744 ft 326 kts 183°
2026-04-25 13:49 44.88796 125.94494 12245 ft 329 kts 183°
2026-04-25 13:49 44.86077 125.94475 13054 ft 333 kts 184°
2026-04-25 13:49 44.83778 125.94457 13726 ft 336 kts 184°
2026-04-25 13:50 44.82426 125.94447 14113 ft 338 kts 184°
2026-04-25 13:50 44.81618 125.94439 14341 ft 339 kts 184°
2026-04-25 13:50 44.76270 125.94379 15783 ft 346 kts 186°
2026-04-25 13:51 44.73850 125.94179 16408 ft 347 kts 190°
2026-04-25 13:51 44.71423 125.93741 17018 ft 349 kts 193°
2026-04-25 13:51 44.69047 125.93218 17603 ft 352 kts 194°
2026-04-25 13:51 44.66619 125.92678 18179 ft 355 kts 194°
2026-04-25 13:52 44.64187 125.92140 18739 ft 358 kts 194°
2026-04-25 13:52 44.61719 125.91598 19292 ft 361 kts 194°
2026-04-25 13:52 44.59184 125.91042 19842 ft 364 kts 194°
2026-04-25 13:52 44.56641 125.90484 20380 ft 367 kts 194°
2026-04-25 13:53 44.54158 125.89941 20900 ft 370 kts 195°
2026-04-25 13:53 44.51601 125.89381 21431 ft 372 kts 195°
2026-04-25 13:53 44.49017 125.88814 21949 ft 375 kts 195°
2026-04-25 13:53 44.46429 125.88246 22446 ft 378 kts 195°
2026-04-25 13:54 44.43843 125.87682 22931 ft 381 kts 195°
2026-04-25 13:54 44.41243 125.87114 23410 ft 384 kts 195°
2026-04-25 13:54 44.38584 125.86534 23881 ft 387 kts 195°
2026-04-25 13:54 44.35939 125.85959 24339 ft 390 kts 195°
2026-04-25 13:55 44.33239 125.85372 24782 ft 393 kts 196°
2026-04-25 13:55 44.30609 125.84801 25207 ft 395 kts 196°
2026-04-25 13:55 44.27858 125.84205 25648 ft 398 kts 196°
2026-04-25 13:55 44.25171 125.83624 26053 ft 400 kts 196°
2026-04-25 13:56 44.22413 125.83025 26455 ft 403 kts 196°
2026-04-25 13:56 44.19658 125.82428 26840 ft 406 kts 196°
2026-04-25 13:56 44.16926 125.81837 27210 ft 408 kts 196°
2026-04-25 13:56 44.14261 125.81272 27563 ft 412 kts 194°
2026-04-25 13:57 44.11377 125.81103 27875 ft 424 kts 185°
2026-04-25 13:57 44.09366 125.81413 28104 ft 433 kts 177°
2026-04-25 13:57 44.05617 125.82933 28531 ft 446 kts 167°
2026-04-25 13:57 44.03112 125.84300 28797 ft 449 kts 165°